Regional Weather Roundup
Issued by NWS Charleston, SC

Current Version | Previous Version | Graphics & Text | Print | Product List | Glossary On
Versions: 1 2 3 4 5 6 7 8 9 10 11 12 13 14 15 16 17 18 19 20 21 22 23 24 25 26 27 28 29 30 31 32 33 34 35 36 37 38 39 40 41 42 43 44 45 46 47 48 49 50
530
ASUS42 KCHS 230627
RWRCHS

Regional Weather Roundup
National Weather Service Charleston SC
100 AM EST TUE JAN 23 2018

NOTE: "fair" indicates few or no clouds below 12,000 feet with no
significant weather and/or obstructions to visibility.

Not all stations are quality controlled. Use data with caution,
especially dewpoint observations.

SCZ027-030-031-034>040-042>050-230700-
...Southeast South Carolina...

CITY           SKY/WX    TMP DP  RH WIND       PRES   REMARKS
N Charleston   MOCLDY    68  63  84 S14       29.97F
6HR MIN TEMP:  60; 6HR MAX TEMP:  68;

Waterfront Prk NOT AVBL
Mount Pleasant FAIR      64  63  94 S12       29.98F
Johns Island   FAIR      63  63 100 S8G15     29.98S
Pinopolis        N/A     63  63 100 VRB2      29.88F
Moncks Corner  MOCLDY    64  61  88 S10       29.95F
Summerville    MOCLDY    64  61  88 S7        29.96F
Beaufort MCAS  FAIR      66  63  90 S8G18     29.97F
6HR MIN TEMP:  53; 6HR MAX TEMP:  66;

Beaufort Arpt  CLOUDY    64  63  94 S12G22    29.97F
Hilton Head Is MOCLDY    63  61  94 S13       29.98F
Walterboro     MOCLDY    64  63  94 S12       29.96F
Allendale      CLOUDY    66  63  88 S7G15     29.93F

...Southern Midlands and Pee Dee...

CITY           SKY/WX    TMP DP  RH WIND       PRES   REMARKS
Georgetown     FAIR      64  63  94 S9        29.98F
Kingstree      FAIR      61  59  94 SE8       29.94F
Orangeburg     CLOUDY    64  60  87 S14       29.93F
6HR MIN TEMP:  62; 6HR MAX TEMP:  65;

Barnwell         N/A     68  64  88 S10G16    29.93F
Aiken          RAIN      63  63 100 S12G20    29.93F
Manning        FAIR      63  52  67 MISG      29.94F
Columbia       CLOUDY    67  63  87 S15G29    29.89F
6HR MIN TEMP:  61; 6HR MAX TEMP:  67;

Sumter         MOCLDY    64  61  88 S14G23    29.89F
6HR MIN TEMP:  60; 6HR MAX TEMP:  63;

Florence       FAIR      61  60  97 S12       29.94F
6HR MIN TEMP:  59; 6HR MAX TEMP:  61;

Myrtle Beach   FAIR      62  59  90 S21       29.98F
N Myrtle Beach FAIR      58  56  93 S15       29.99F
6HR MIN TEMP:  55; 6HR MAX TEMP:  61;


$$

GAZ063-065-086>088-099>101-113>116-118-119-134>141-150-230700-
...Southeast Georgia...

CITY           SKY/WX    TMP DP  RH WIND       PRES   REMARKS
Savannah Arpt  CLOUDY    66  63  90 S12       29.98F
6HR MIN TEMP:  62; 6HR MAX TEMP:  66;

Hunter AAF     MOCLDY    65  62  90 S10G17    29.96S
6HR MIN TEMP:  60; 6HR MAX TEMP:  66;

Fort Stewart   MOCLDY    68  62  83 S9G18     29.95F
6HR MIN TEMP:  65; 6HR MAX TEMP:  68;

Statesboro     CLOUDY    67  60  79 S8        29.95F
Sylvania       CLOUDY    66  65  97 SW6       29.95F
Claxton        CLOUDY    68  64  86 SE3       29.95F

...CSRA, Central and far Southeast Georgia...

CITY           SKY/WX    TMP DP  RH WIND       PRES   REMARKS
Thomson        CLOUDY    62  61  96 W6        29.93F
Augusta-Bush   CLOUDY    66  62  87 S13       29.90F
6HR MIN TEMP:  63; 6HR MAX TEMP:  67; 6HR PCP: TRACE;

Augusta-Daniel CLOUDY    66  62  87 S13       29.91F
Swainsboro     DRIZZLE   64  63  94 S8        29.93F
Vidalia        LGT RAIN  64  63  94 S7        29.95S
Eastman        CLOUDY    66  59  77 S6        29.95F
Hazlehurst     LGT RAIN  65  64  95 S10       29.94F
Alma           LGT RAIN  65  62  90 S10       29.97F FOG
6HR MIN TEMP:  64; 6HR MAX TEMP:  68; 6HR PCP:  0.04;

Waycross       CLOUDY    65  62  90 SW7       29.98F
Jesup          NOT AVBL
Baxley         RAIN      63  63 100 S7        29.96F
Brunswick      CLOUDY    64  61  88 S8        29.99F
Saint Simons   CLOUDY    58  58 100 SE5       29.98F
6HR MIN TEMP:  58; 6HR MAX TEMP:  61;


$$

SCZ027-028-034-036>038-045-046-048>050-GAZ119-141-230700-
...Lake and Supplemental Coastal Observations...

STATION/POSITION TIME  TEMP    WIND        PRES    WAVE   SWELL
                       AIR SEA DIR/SP/G            HT/PER HT/PER/DIR
                 (UTC) (F)     (DEG/KT/KT) (MB)    (FT/S) (FT/S/D)
Winyah Bay       0545   57     170/  3     1016.0F
Lake Murray      0550   60     180/ 16/ 20 1011.2F
ACE Basin NERRS  0545   58     150/  1     1015.0F
Fort Pulaski     0600   61 47  200/  6/ 10 1015.3
Sapelo Island    0600   61     200/ 13     1016.0

$$

ANZ835-935-AMZ111-154-330-350-352-354-370-450-454-472-230700-
...C-MAN and Buoy Observations...

STATION/POSITION TIME  TEMP    WIND        PRES    WAVE   SWELL
                       AIR SEA DIR/SP/G            HT/PER HT/PER/DIR
                 (UTC) (F)     (DEG/KT/KT) (MB)    (FT/S) (FT/S/D)
Buoy 41004       0610   71 70  170/ 19/ 21 1015.4
Buoy 41008       0550   58 52  160/ 14/ 16 1015.0F   2/ 5   2/100/10
Folly Beach CMAN 0600   57     170/ 12/ 13 1015.5F
Capers Nearshore 0608   56 52  180/ 12/ 16 1014.6F
Fripp Nearshore  0608   53 48  180/ 10/ 14 1014.6F


STATION/POSITION TIME  TEMP    WIND        PRES    WAVE   SWELL
                       AIR SEA DIR/SP/G            HT/PER HT/PER/DIR
                 (UTC) (F)     (DEG/KT/KT) (MB)    (FT/S) (FT/S/D)
5E St. Marys GA  0600      50                N/A     3/ 5
Frying Pan Buoy  0610   70 67  190/ 19/ 25 1016.3
Buoy 41025       0610   70 69  180/ 23/ 29 1017.5
Cape Lookout NC  0600          190/ 11/ 12 1017.1F
Buoy 41002       0550   69 70  140/ 16/ 19 1020.2F   3/ 5   2/100/ 9
Buoy 41010       NOT AVBL
St Augustine FL  0600   67 53  220/  6/  8 1017.2R


$$




USA.gov is the U.S. government's official web portal to all federal, state and local government web resources and services.